Location: Saratoga Springs
(43.0831°N, 73.7850°W)
Time: 12:34:57
(UTC-04:00)

Transit 4A - Pass Details

Date: 23 April 2024
Orbit: 871 x 971 km, 66.8° (Epoch: 20 May)

Event Time Altitude Azimuth Distance (km) Brightness Sun altitude
Rises 22:10:02 0° 325° (NW) 3,468 12.3 -22.6°
Reaches altitude 10° 22:12:34 10° 321° (NW) 2,528 11.3 -23.0°
Maximum altitude 22:18:13 54° 245° (WSW) 1,063 8.2 -23.7°
Enters shadow 22:20:04 38° 193° (SSW) 1,308 8.4 -23.9°
